Regional Weather Roundup
Issued by NWS State College, PA

Home | Current Version | Previous Version | Text Only | Print | Product List | Glossary On
Versions: 1 2 3 4 5 6 7 8 9 10 11 12 13 14 15 16 17 18 19 20 21 22 23 24 25 26 27 28 29 30 31 32 33 34 35 36 37 38 39 40 41 42 43 44 45 46 47 48 49 50
000
ASUS41 KCTP 252110
RWRCTP

REGIONAL WEATHER ROUNDUP
NATIONAL WEATHER SERVICE STATE COLLEGE PA
500 PM EDT SUN SEP 25 2016

Note: "fair" indicates few or no clouds below 12,000 feet with no
significant weather and/or obstructions to visibility.

* = STATION THAT DOES NOT REPORT PRECIPITATION /E.G. RAIN...SNOW...ETC/
    THUNDER OR FOG.

PAZ002>004-007>009-013>016-020>023-029>032-252200-
WESTERN PENNSYLVANIA

CITY           SKY/WX    TMP DP  RH WIND       PRES   REMARKS
ERIE           SUNNY     66  50  56 NE12      30.13F
MEADVILLE      SUNNY     67  39  35 VRB5      30.14F
FRANKLIN*        N/A     68  43  40 CALM      30.16S
NEW CASTLE     FAIR      72  45  37 CALM      30.13F
BEAVER COUNTY  NOT AVBL
BUTLER*        SUNNY     72  43  35 CALM      30.16S
PITTSBURGH INT PTSUNNY   76  44  32 VRB3      30.11F
PITTSBURGH     SUNNY     75  45  34 VRB5      30.11F
INDIANA*       SUNNY     72  46  40 VRB6      30.15F
LATROBE        SUNNY     73  48  40 VRB6      30.12F
WASHINGTON CO* SUNNY     73  46  38 N5        30.12F
$$

PAZ004>006-010>012-017>019-024>028-033>037-041-042-045-046-049>053-252200-
CENTRAL PENNSYLVANIA

CITY           SKY/WX    TMP DP  RH WIND       PRES   REMARKS
BRADFORD       SUNNY     65  40  39 VRB3      30.16F
DUBOIS         SUNNY     69  39  33 NE6       30.13F
CLEARFIELD     SUNNY     68  38  33 CALM      30.15F
JOHNSTOWN      SUNNY     70  46  42 CALM      30.14F
ALTOONA        SUNNY     71  40  32 CALM      30.14F
STATE COLLEGE  SUNNY     68  39  34 CALM      30.15F
WILLIAMSPORT   SUNNY     70  44  39 VRB5      30.13S
SELINSGROVE    SUNNY     72  38  29 CALM      30.14F
FT INDIANTOWN  NOT AVBL
CAPITAL CITY   SUNNY     71  40  32 S3        30.13F
HARRISBURG     MOSUNNY   71  46  40 CALM      30.13F
YORK           SUNNY     70  45  40 W3        30.13F
$$

PAZ038>040-043-044-047-048-054-055-060>062-067>071-252200-
EASTERN PENNSYLVANIA

CITY           SKY/WX    TMP DP  RH WIND       PRES   REMARKS
SCRANTON       SUNNY     67  36  31 NE9       30.15F
MOUNT POCONO   SUNNY     62  32  32 VRB6      30.16F
ALLENTOWN      SUNNY     71  38  29 N8        30.13F
QUAKERTOWN*    CLEAR     70  41  35 W5        30.14S
READING        SUNNY     71  41  33 NW3       30.12F
LANCASTER      SUNNY     72  42  34 NE5       30.13F
COATESVILLE    CLEAR     68  41  37 NW6       30.15F
POTTSTOWN      SUNNY     70  41  34 NW6       30.14F
BLUE BELL      SUNNY     70  41  35 W3        30.12F
DOYLESTOWN     SUNNY     73  42  32 MISG      30.12F
WILLOW GROVE   NOT AVBL
NORTH PHILA    SUNNY     73  40  30 N5        30.14F
PHILADELPHIA   MOSUNNY   72  39  30 NW7       30.13F
$$



USA.gov is the U.S. government's official web portal to all federal, state and local government web resources and services.